This demonstration page uses our WeatherBlox Daily Observations layout. Learn more.

Left ArrowRight Arrow

Hourly Observations for May 1, 2016

Temp ( °F °C ) Dew Point ( °F °C ) Humidity (%) Winds ( mph kmh ) Pressure ( in mb ) Visibility ( mi km ) Precip ( " mm )
12:52 am 00:52 Clear 57 13.9 49 9.4 74 74 W 7 11 29.87 1012 10 16 0.00 0.00
1:52 am 01:52 Clear 54 12.2 49 9.4 83 83 W 5 7 29.87 1012 10 16 0.00 0.00
2:52 am 02:52 Clear 54 12.2 48 8.9 80 80 W 5 7 29.88 1012 10 16 0.00 0.00
3:52 am 03:52 Clear 52 11.1 47 8.3 83 83 W 5 7 29.89 1012 10 16 0.00 0.00
4:52 am 04:52 Clear 50 10 45 7.2 83 83 NW 5 7 29.90 1013 10 16 0.00 0.00
5:52 am 05:52 Clear 50 10 44 6.7 80 80 Calm 29.90 1013 10 16 0.00 0.00
6:52 am 06:52 Sunny 46 7.8 42 5.6 86 86 Calm 29.91 1013 10 16 0.00 0.00
7:52 am 07:52 Sunny 54 12.2 46 7.8 75 75 W 6 9 29.94 1014 10 16 0.00 0.00
8:52 am 08:52 Sunny 57 13.9 45 7.2 64 64 W 10 17 29.97 1015 10 16 0.00 0.00
9:52 am 09:52 Sunny 60 15.6 45 7.2 58 58 WNW 9 15 29.98 1015 10 16 0.00 0.00
10:52 am 10:52 Sunny 62 16.7 41 5 46 46 W 10 17 29.98 1015 10 16 0.00 0.00
11:52 am 11:52 Sunny 64 17.8 43 6.1 46 46 W 13 20 29.98 1015 10 16 0.00 0.00
12:52 pm 12:52 Sunny 65 18.3 43 6.1 45 45 W 13 20 29.99 1016 10 16 0.00 0.00
1:52 pm 13:52 Partly Cloudy 65 18.3 44 6.7 47 47 NW 14 22 29.99 1016 10 16 0.00 0.00
2:52 pm 14:52 Mostly Cloudy 65 18.3 45 7.2 49 49 WNW 10 17 29.99 1016 10 16 0.00 0.00
3:52 pm 15:52 Partly Cloudy 65 18.3 44 6.7 47 47 W 13 20 29.99 1016 10 16 0.00 0.00
4:52 pm 16:52 Mostly Sunny 63 17.2 44 6.7 50 50 W 8 13 30.00 1016 10 16 0.00 0.00
5:52 pm 17:52 Mostly Cloudy 63 17.2 44 6.7 50 50 NW 7 11 30.00 1016 10 16 0.00 0.00
6:52 pm 18:52 Sunny 70 21 54 12 57 57 WSW 13 20 29.71 1006 10 16 0.00 0.00
7:52 pm 19:52 Mostly Cloudy 59 15 43 6.1 56 56 WNW 5 7 30.03 1017 10 16 0.00 0.00
8:52 pm 20:52 Clear 56 13.3 44 6.7 65 65 W 5 7 30.03 1017 10 16 0.00 0.00
9:52 pm 21:52 Clear 55 12.8 43 6.1 64 64 W 5 7 30.05 1018 10 16 0.00 0.00
10:52 pm 22:52 Clear 53 11.7 44 6.7 72 72 WNW 5 7 30.06 1018 10 16 0.00 0.00
11:52 pm 23:52 Mostly Cloudy 52 11.1 46 7.8 80 80 NNW 7 11 30.07 1018 10 16 0.00 0.00

Powered by AerisWeather